sat.trackr.live / text

‹ back to catalog

STARLINK-36542

NORAD 67445 · 2026-008A

PAYLOAD ACTIVE UNKNOWN

§ Identity

Operator
Country
US
Launch date
2026-01-14
Launch site
AFETR
Launch vehicle
Mass (kg)
RCS (m²)

Purposes: comms

External: N2YO · Heavens-Above · Gunter

§ Orbital elements

Epoch: 2026-09-19T12:36:31.626720Z

Period
94.27 min
Inclination
43.0015°
Eccentricity
0.0001056
Mean motion
15.27588273 rev/d
Perigee alt
482.3 km
Apogee alt
483.7 km
Semi-major
6,861.2 km
B*
5.2277e-4
RAAN
190.8331°
Arg perigee
289.7656°
Mean anomaly
70.3081°
Rev number
3,921

§ Raw data

STARLINK-365421 67445U 26008A   26262.52536605  .00014155  00000+0  52277-3 0  99932 67445  43.0015 190.8331 0001056 289.7656  70.3081 15.27588273 39213

JSON: /api/v1/satellites/67445 · /tle

For live sub-satellite position, see the globe view (requires WebGL).

§ Visibility from observer

Set your observer location to see the next 7 days of passes ≥ 10°. The values pass through the URL so the page stays shareable.

No JS? Fill the form by hand. The geolocation button needs JavaScript.